Location: Brooks Farm Pond
(32.9618°N, 86.0700°W)
Time: 23:54:16
(UTC+00:00)

Delta 2 Rocket - Pass Details

Date: 29 October 2020
Orbit: 415 x 806 km, 35.6° (Epoch: 28 November)

Event Time Altitude Azimuth Distance (km) Brightness Sun altitude
Rises 23:33:25 0° 285° (WNW) 2,967 8.4 -8.6°
Reaches altitude 10° 23:35:41 10° 283° (WNW) 2,115 7.5 -9.1°
Maximum altitude 23:40:40 69° 200° (SSW) 783 4.2 -10.1°
Drops below altitude 10° 23:46:09 10° 118° (ESE) 2,320 6.0 -11.2°
Enters shadow 23:46:36 - 118° (ESE) 2,486 6.2 -11.3°
